EDT,Max TemperatureF,Mean TemperatureF,Min TemperatureF,Max Dew PointF,MeanDew PointF,Min DewpointF,Max Humidity, Mean Humidity, Min Humidity, Max Sea Level PressureIn, Mean Sea Level PressureIn, Min Sea Level PressureIn, Max VisibilityMiles, Mean VisibilityMiles, Min VisibilityMiles, Max Wind SpeedMPH, Mean Wind SpeedMPH, Max Gust SpeedMPH,PrecipitationIn, CloudCover, Events, WindDirDegrees
2014-8-1,81,73,65,62,58,52,73,62,51,30.13,30.10,30.07,10,10,9,20,6,28,0.09,1,,243
2014-8-2,79,72,64,65,62,59,93,79,64,30.14,30.10,30.06,10,8,1,20,7,28,0.86,5,Rain-Thunderstorm,102
2014-8-3,76,70,63,64,62,60,93,81,68,30.12,30.10,30.07,10,10,6,10,3,13,T,4,Rain,237
2014-8-4,82,72,61,64,59,54,93,68,42,30.12,30.08,30.05,10,9,6,12,6,15,0.00,0,,214
2014-8-5,79,71,63,63,61,57,93,76,58,30.08,30.04,30.01,10,9,7,22,4,32,0.03,3,Rain,191
2014-8-6,74,68,61,63,60,56,93,75,57,30.02,30.00,29.99,10,10,7,10,5,15,0.00,3,,235
2014-8-7,74,66,58,58,57,54,87,72,57,30.11,30.08,30.03,10,10,10,10,4,14,0.00,0,,268
2014-8-8,76,67,58,59,55,52,86,66,46,30.15,30.12,30.11,10,10,10,12,4,15,0.00,0,,24
2014-8-9,79,69,59,63,57,53,84,66,47,30.14,30.12,30.09,10,10,10,20,7,25,0.00,0,,51
2014-8-10,82,73,64,66,60,55,73,62,51,30.12,30.08,30.03,10,10,10,18,9,23,0.00,0,,104
2014-8-11,81,75,68,63,61,59,76,67,58,30.03,29.93,29.78,10,10,7,28,16,41,0.04,3,Rain,156
2014-8-12,80,73,66,66,64,60,87,73,58,29.78,29.74,29.69,10,8,1,22,10,29,0.84,6,Rain-Thunderstorm,187
2014-8-13,71,63,55,63,56,46,81,63,45,29.95,29.85,29.76,10,10,7,18,10,26,0.01,7,Rain,294
2014-8-14,67,61,54,52,48,43,83,64,44,29.97,29.95,29.91,10,10,10,17,9,25,0.00,6,,278
2014-8-15,69,60,51,51,47,43,83,65,47,30.02,29.99,29.96,10,10,10,17,9,24,0.00,2,,239
2014-8-16,75,66,56,62,51,43,73,57,41,29.99,29.93,29.86,10,10,6,17,9,25,0.11,3,Rain,216
2014-8-17,74,66,58,65,57,48,87,64,41,30.01,29.96,29.88,10,10,9,13,6,16,T,4,Rain,358
2014-8-18,74,65,56,61,56,52,86,72,57,29.99,29.92,29.86,10,10,10,16,6,21,0.00,0,,63
2014-8-19,83,70,56,63,59,53,87,65,43,29.90,29.85,29.81,10,9,2,21,4,28,0.28,2,Rain,18
2014-8-20,82,74,66,66,64,61,87,73,58,29.95,29.88,29.82,10,9,1,18,9,25,0.42,4,Rain,186
2014-8-21,81,74,67,68,66,64,93,78,62,30.01,29.98,29.94,10,10,8,10,4,14,0.00,4,,235
2014-8-22,80,73,66,70,67,64,90,79,67,30.00,29.98,29.95,10,10,6,10,4,13,T,6,,241
2014-8-23,75,70,64,66,64,61,93,83,73,30.07,30.03,29.97,10,7,2,17,10,21,0.00,7,,43
2014-8-24,79,72,64,65,61,59,87,71,54,30.15,30.11,30.07,10,10,10,13,6,18,0.00,3,,113
2014-8-25,83,73,63,62,59,56,84,67,50,30.16,30.12,30.08,10,10,10,20,10,23,0.00,1,,161
2014-8-26,88,78,67,68,62,56,74,62,50,30.14,30.08,30.00,10,10,8,16,10,23,0.00,1,,189
2014-8-27,76,71,65,68,62,54,90,72,54,30.10,30.06,30.02,10,9,4,14,8,20,0.00,5,,316
2014-8-28,70,63,56,54,50,47,80,62,44,30.16,30.12,30.07,10,10,10,14,6,17,0.00,1,,327
2014-8-29,78,66,54,59,51,46,83,58,33,30.19,30.14,30.08,10,10,10,15,6,18,0.00,0,,127
2014-8-30,91,79,66,68,61,54,68,56,43,30.08,30.01,29.93,10,10,10,21,14,26,0.00,1,,180
2014-8-31,81,76,71,70,68,65,93,76,58,30.00,29.98,29.95,10,7,0,18,8,26,0.64,6,Fog-Rain,227